N403BG LESO-LEBB

Flight info

Callsign N403BG
Flight time 0h 28m
Altitude 3500
Route W1 W E N1
Aircraft C172/L-SGO/C

Departure

Time 2026-05-08 16:23
Airport San Sebastián Airport (LESO)

Arrival

Time 2026-05-08 16:51
Airport Bilbao Airport (LEBB)
Time Latitude Longitude Altitude Speed Heading
2026-05-08 15:59 43.35511 -1.79392 12 ft 0 kts 128°
2026-05-08 16:17 43.35518 -1.79333 12 ft 11 kts 60°
2026-05-08 16:18 43.35522 -1.79225 13 ft 13 kts 64°
2026-05-08 16:18 43.35591 -1.79130 13 ft 15 kts 43°
2026-05-08 16:18 43.35675 -1.79023 13 ft 18 kts 39°
2026-05-08 16:18 43.35780 -1.78918 14 ft 19 kts 38°
2026-05-08 16:19 43.35888 -1.78800 15 ft 21 kts 39°
2026-05-08 16:19 43.36004 -1.78672 17 ft 22 kts 38°
2026-05-08 16:19 43.36096 -1.78544 17 ft 17 kts 52°
2026-05-08 16:19 43.36115 -1.78550 17 ft 0 kts 217°
2026-05-08 16:22 43.36019 -1.78655 17 ft 43 kts 218°
2026-05-08 16:22 43.35728 -1.78976 42 ft 75 kts 218°
2026-05-08 16:22 43.35322 -1.79445 214 ft 81 kts 219°
2026-05-08 16:22 43.34907 -1.79966 440 ft 80 kts 223°
2026-05-08 16:23 43.34584 -1.80599 644 ft 83 kts 249°
2026-05-08 16:23 43.34386 -1.81390 795 ft 91 kts 253°
2026-05-08 16:23 43.34217 -1.82228 964 ft 96 kts 253°
2026-05-08 16:23 43.34001 -1.83125 1097 ft 102 kts 252°
2026-05-08 16:24 43.33770 -1.84088 1228 ft 108 kts 255°
2026-05-08 16:24 43.33570 -1.85072 1362 ft 109 kts 255°
2026-05-08 16:24 43.33410 -1.86081 1427 ft 110 kts 261°
2026-05-08 16:24 43.33329 -1.87130 1465 ft 112 kts 268°
2026-05-08 16:25 43.33369 -1.88214 1457 ft 114 kts 277°
2026-05-08 16:25 43.33449 -1.89293 1508 ft 114 kts 276°
2026-05-08 16:25 43.33514 -1.90372 1539 ft 116 kts 274°
2026-05-08 16:25 43.33566 -1.91507 1511 ft 122 kts 272°
2026-05-08 16:26 43.33517 -1.92639 1611 ft 116 kts 263°
2026-05-08 16:26 43.33399 -1.93768 1543 ft 123 kts 263°
2026-05-08 16:26 43.33246 -1.94905 1608 ft 118 kts 253°
2026-05-08 16:26 43.33072 -1.95696 1606 ft 120 kts 250°
2026-05-08 16:27 43.32852 -1.96570 1557 ft 123 kts 255°
2026-05-08 16:27 43.32657 -1.97703 1593 ft 121 kts 259°
2026-05-08 16:27 43.32462 -1.98808 1658 ft 119 kts 256°
2026-05-08 16:27 43.32239 -1.99918 1644 ft 121 kts 254°
2026-05-08 16:28 43.31994 -2.01017 1650 ft 122 kts 255°
2026-05-08 16:28 43.31779 -2.02137 1669 ft 121 kts 256°
2026-05-08 16:28 43.31607 -2.03274 1669 ft 120 kts 260°
2026-05-08 16:28 43.31453 -2.04374 1686 ft 117 kts 251°
2026-05-08 16:29 43.31223 -2.05425 1681 ft 116 kts 254°
2026-05-08 16:29 43.31016 -2.06501 1640 ft 117 kts 255°
2026-05-08 16:29 43.30842 -2.07601 1633 ft 118 kts 258°
2026-05-08 16:29 43.30680 -2.08693 1692 ft 115 kts 255°
2026-05-08 16:30 43.30560 -2.09798 1672 ft 119 kts 257°
2026-05-08 16:30 43.30330 -2.10885 1699 ft 117 kts 252°
2026-05-08 16:30 43.30095 -2.11947 1735 ft 116 kts 252°
2026-05-08 16:30 43.29885 -2.12993 1801 ft 113 kts 256°
2026-05-08 16:31 43.29816 -2.14106 1741 ft 122 kts 268°
2026-05-08 16:31 43.29779 -2.15259 1759 ft 120 kts 264°
2026-05-08 16:31 43.29682 -2.16403 1761 ft 120 kts 261°
2026-05-08 16:31 43.29553 -2.17531 1774 ft 120 kts 259°
2026-05-08 16:32 43.29483 -2.18670 1769 ft 121 kts 272°
2026-05-08 16:32 43.29526 -2.19820 1778 ft 121 kts 270°
2026-05-08 16:32 43.29519 -2.20970 1807 ft 119 kts 268°
2026-05-08 16:32 43.29484 -2.22105 1821 ft 120 kts 268°
2026-05-08 16:33 43.29485 -2.23248 1838 ft 119 kts 272°
2026-05-08 16:33 43.29497 -2.24380 1845 ft 118 kts 270°
2026-05-08 16:33 43.29499 -2.25504 1881 ft 117 kts 269°
2026-05-08 16:33 43.29538 -2.26632 1928 ft 118 kts 276°
2026-05-08 16:34 43.29630 -2.27739 1938 ft 120 kts 275°
2026-05-08 16:34 43.29697 -2.28886 1972 ft 119 kts 272°
2026-05-08 16:34 43.29761 -2.30007 2004 ft 119 kts 274°
2026-05-08 16:34 43.29845 -2.31148 2048 ft 121 kts 275°
2026-05-08 16:35 43.29900 -2.32267 2099 ft 118 kts 269°
2026-05-08 16:35 43.29791 -2.33403 2054 ft 122 kts 251°
2026-05-08 16:35 43.29620 -2.34485 2118 ft 117 kts 274°
2026-05-08 16:35 43.29809 -2.35615 2100 ft 122 kts 284°
2026-05-08 16:36 43.29988 -2.36736 2189 ft 119 kts 279°
2026-05-08 16:36 43.30123 -2.37860 2188 ft 120 kts 279°
2026-05-08 16:36 43.30262 -2.38995 2174 ft 120 kts 277°
2026-05-08 16:36 43.30379 -2.40113 2225 ft 117 kts 277°
2026-05-08 16:37 43.30483 -2.41222 2226 ft 117 kts 274°
2026-05-08 16:37 43.30520 -2.42296 2339 ft 110 kts 266°
2026-05-08 16:37 43.30517 -2.43337 2512 ft 105 kts 271°
2026-05-08 16:37 43.30557 -2.44364 2539 ft 111 kts 270°
2026-05-08 16:38 43.30526 -2.45092 2534 ft 119 kts 263°
2026-05-08 16:38 43.30485 -2.45917 2549 ft 122 kts 267°
2026-05-08 16:38 43.30495 -2.47077 2536 ft 122 kts 269°
2026-05-08 16:38 43.30485 -2.48241 2559 ft 121 kts 265°
2026-05-08 16:39 43.30435 -2.49394 2591 ft 120 kts 263°
2026-05-08 16:39 43.30386 -2.50535 2577 ft 121 kts 263°
2026-05-08 16:39 43.30361 -2.51681 2596 ft 120 kts 269°
2026-05-08 16:39 43.30429 -2.52832 2581 ft 122 kts 272°
2026-05-08 16:40 43.30494 -2.53979 2561 ft 120 kts 270°
2026-05-08 16:40 43.30541 -2.55126 2553 ft 121 kts 270°
2026-05-08 16:40 43.30540 -2.56275 2623 ft 120 kts 266°
2026-05-08 16:40 43.30440 -2.57432 2589 ft 123 kts 260°
2026-05-08 16:41 43.30292 -2.58597 2558 ft 124 kts 263°
2026-05-08 16:41 43.30214 -2.59781 2590 ft 124 kts 264°
2026-05-08 16:41 43.30204 -2.60977 2572 ft 126 kts 272°
2026-05-08 16:42 43.30374 -2.63356 2481 ft 127 kts 280°
2026-05-08 16:42 43.30528 -2.64555 2388 ft 130 kts 281°
2026-05-08 16:42 43.30724 -2.65782 2277 ft 133 kts 282°
2026-05-08 16:42 43.30931 -2.67043 2085 ft 138 kts 282°
2026-05-08 16:43 43.31150 -2.68334 1923 ft 140 kts 283°
2026-05-08 16:43 43.31382 -2.69635 1817 ft 136 kts 285°
2026-05-08 16:43 43.31588 -2.70851 1830 ft 128 kts 285°
2026-05-08 16:43 43.31810 -2.72030 1773 ft 125 kts 287°
2026-05-08 16:44 43.31983 -2.73151 1870 ft 116 kts 274°
2026-05-08 16:44 43.32041 -2.74264 1788 ft 120 kts 283°
2026-05-08 16:44 43.32236 -2.75396 1764 ft 120 kts 288°
2026-05-08 16:44 43.32510 -2.76491 1717 ft 125 kts 294°
2026-05-08 16:45 43.32876 -2.77569 1694 ft 124 kts 300°
2026-05-08 16:45 43.33317 -2.78590 1610 ft 126 kts 305°
2026-05-08 16:45 43.33823 -2.79594 1465 ft 131 kts 308°
2026-05-08 16:45 43.34331 -2.80643 1357 ft 132 kts 304°
2026-05-08 16:46 43.34811 -2.81715 1326 ft 127 kts 303°
2026-05-08 16:46 43.35217 -2.82747 1390 ft 122 kts 299°
2026-05-08 16:46 43.35586 -2.83781 1418 ft 120 kts 296°
2026-05-08 16:46 43.35617 -2.84895 1376 ft 125 kts 237°
2026-05-08 16:47 43.34940 -2.85554 1431 ft 119 kts 207°
2026-05-08 16:47 43.34242 -2.86209 1373 ft 123 kts 213°
2026-05-08 16:47 43.33544 -2.86879 1420 ft 121 kts 213°
2026-05-08 16:47 43.32873 -2.87578 1429 ft 123 kts 218°
2026-05-08 16:48 43.32184 -2.88318 1348 ft 129 kts 214°
2026-05-08 16:48 43.31459 -2.89065 1131 ft 129 kts 216°
2026-05-08 16:48 43.30830 -2.89901 967 ft 122 kts 246°
2026-05-08 16:48 43.30867 -2.90932 980 ft 103 kts 278°
2026-05-08 16:49 43.30926 -2.91918 973 ft 99 kts 277°
2026-05-08 16:49 43.31017 -2.92842 958 ft 96 kts 280°
2026-05-08 16:49 43.31159 -2.93718 959 ft 93 kts 285°
2026-05-08 16:49 43.31305 -2.94540 993 ft 84 kts 288°
2026-05-08 16:50 43.31462 -2.95320 1000 ft 85 kts 286°
2026-05-08 16:50 43.31391 -2.96049 1024 ft 81 kts 214°
2026-05-08 16:50 43.30860 -2.96133 914 ft 85 kts 157°
2026-05-08 16:50 43.30550 -2.95831 806 ft 77 kts 119°
2026-05-08 16:51 43.30430 -2.95002 582 ft 62 kts 94°
2026-05-08 16:51 43.30402 -2.94615 450 ft 61 kts 93°
2026-05-08 16:51 43.30355 -2.94048 265 ft 62 kts 92°
2026-05-08 16:51 43.30302 -2.93319 126 ft 46 kts 94°
2026-05-08 16:52 43.30284 -2.93114 126 ft 17 kts 99°
2026-05-08 16:52 43.30263 -2.93053 126 ft 5 kts 127°
2026-05-08 16:52 43.30193 -2.93025 127 ft 13 kts 182°
2026-05-08 16:52 43.30141 -2.93079 127 ft 5 kts 225°
2026-05-08 16:53 43.30103 -2.93094 127 ft 0 kts 279°
2026-05-08 16:53 43.30104 -2.93108 127 ft 3 kts 273°
2026-05-08 16:53 43.30104 -2.93109 127 ft 0 kts 273°